Location: *
(34.6780°N, 135.8310°E)
Time: 18:42:08
(UTC+00:00)

Cosmos 2327 Rocket - Pass Details

Date: 18 October 2019
Orbit: 943 x 1009 km, 83.0° (Epoch: 11 November)

Event Time Altitude Azimuth Distance (km) Brightness Sun altitude
Rises 19:28:24 0° 187° (S) 3,687 7.4 -20.6°
Reaches altitude 10° 19:30:56 10° 189° (S) 2,733 6.7 -20.1°
Maximum altitude 19:37:12 80° 276° (W) 991 4.4 -18.8°
Drops below altitude 10° 19:43:24 10° 4° (N) 2,702 6.9 -17.5°
Sets 19:45:54 0° 5° (N) 3,643 7.6 -17.0°
